Location: Forli
(44.2227°N, 12.0407°E)
Time: 03:53:19
(UTC+02:00)

DX 1 - Pass Details

Date: 18 April 2026
Orbit: 593 x 604 km, 98.4° (Epoch: 19 May)

Event Time Altitude Azimuth Distance (km) Brightness Sun altitude
Rises 05:21:31 0° 359° (N) 2,842 ? -11.2°
Reaches altitude 10° 05:24:08 10° 343° (NNW) 1,935 ? -10.7°
Maximum altitude 05:27:12 20° 296° (WNW) 1,385 ? -10.3°
Enters shadow 05:29:37 13° 255° (WSW) 1,740 ? -9.9°
